Regional Weather Roundup
Issued by NWS

Home | Current Version | Previous Version | Text Only | Print | Product List | Glossary Off
Versions: 1 2 3 4 5 6 7 8 9 10 11 12 13 14 15 16 17 18 19 20 21 22 23 24 25 26 27 28 29 30 31 32 33 34 35 36 37 38 39 40 41 42 43 44 45 46 47 48 49 50

000
ASUS43 KMPX 261401
RWRMN
WEATHER ROUNDUP FOR MINNESOTA
NATIONAL WEATHER SERVICE TWIN CITIES/CHANHASSEN MN
900 AM CDT MON SEP 26 2016


NOTE: "FAIR" INDICATES FEW OR NO CLOUDS BELOW 12,000 FEET WITH NO
SIGNIFICANT WEATHER AND/OR OBSTRUCTIONS TO VISIBILITY. N/A MEANS
CURRENT SKY AND/OR WEATHER CONDITIONS ARE NOT AVAILABLE.

MNZ060>063-068>070-261500-
   Twin Cities Metro

CITY           SKY/WX    TMP DP  RH WIND       PRES   REMARKS
TWIN CITIES    SUNNY     54  40  59 W16G22    29.94F
ST PAUL        SUNNY     53  40  61 W14G23    29.94S
CRYSTAL        SUNNY     53  38  56 W16       29.93S
BLAINE         MOSUNNY   54  41  62 W10G18    29.93S
LAKEVILLE      SUNNY     52  39  62 W15G26    29.96F
EDEN PRAIRIE   SUNNY     54  40  59 W13G23    29.95S
LAKEVILLE      SUNNY     52  39  62 W15G26    29.96F
SOUTH ST PAUL  SUNNY     54  40  58 W14       29.94F
LAKE ELMO      FAIR      54  41  62 W14G22    29.94S
$$
MNZ001>005-007-008-013>017-022>024-027-028-261500-
   Northwest Minnesota

CITY           SKY/WX    TMP DP  RH WIND       PRES   REMARKS
BEMIDJI        MOSUNNY   49  40  70 NW22G32   29.84S
HALLOCK        SUNNY     52  39  62 NW17G25   29.89S
ROSEAU         MOSUNNY   48  41  76 W14G21    29.80S
WARROAD        CLOUDY    48  45  87 W15G23    29.78R
THIEF RVR FALL SUNNY     48  39  71 W18G26    29.89S
CROOKSTON      SUNNY     50  39  66 NW20      29.93R
FOSSTON        SUNNY     48  37  66 W21G26    29.90S
DETROIT LAKES  SUNNY     50  37  62 NW18G25   29.95S
MOORHEAD       SUNNY     52  37  58 W17       30.00R
PARK RAPIDS    CLOUDY    49  37  63 NW18G28   29.88S
MAHNOMEN       FAIR      47  39  74 W21G26    29.92S
$$
MNZ006-009>011-018-025>026-261500-
   North Central Minnesota

CITY           SKY/WX    TMP DP  RH WIND       PRES   REMARKS
BAUDETTE       LGT RAIN  47  44  90 W14G21    29.73S
FLAG ISLAND    CLOUDY    48  45  87 NW24G37   29.70S
INTL FALLS     CLOUDY    48  45  89 W17G28    29.65S
WASKISH        CLOUDY    50  43  76 W25G35    29.77S
BIG FORK       CLOUDY    48  43  81 W10       29.74S
GRAND RAPIDS   CLOUDY    49  42  77 W15G24    29.79S
COOK           LGT RAIN  46  45  93 W18G25    29.68S
WALKER         CLOUDY    46  39  76 W15       29.85S
$$
MNZ012-019>021-037-261500-
   Northeast Minnesota

CITY           SKY/WX    TMP DP  RH WIND       PRES   REMARKS
DULUTH         LGT RAIN  48  45  89 W22G35    29.70S
ELY            RAIN      48  46  93 W15G23    29.60S
HIBBING        CLOUDY    47  43  86 W13G25    29.71S
EVELETH        RAIN      47  44  89 W18G26    29.70S
DULUTH HARBOR  CLOUDY    54  46  76 W23G31    29.72F
TWO HARBORS    DRIZZLE   52  46  82 W14G20    29.65R
SILVER BAY     LGT RAIN  52  46  82 W7G21     29.61R
GRAND MARAIS     N/A     53  51  93 W7        29.52R
G MARAIS ARPRT LGT RAIN  46  45  93 W10G18    29.52S
$$
MNZ029>031-032-039>041-046>048-054>057-064-261500-
   West Central Minnesota

CITY           SKY/WX    TMP DP  RH WIND       PRES   REMARKS
FERGUS FALLS   SUNNY     48  39  71 W15       30.02S
MORRIS         SUNNY     54  37  54 W21       30.00S
ALEXANDRIA     SUNNY     49  38  65 W18G28    29.98S
ELBOW LAKE     FAIR      47  38  69 NW15G22   30.01R
GLENWOOD       SUNNY     48  37  66 W16G26    29.99R
BENSON         SUNNY     54  36  50 NW14G21   30.02R
MADISON          N/A     55  39  54 W14       30.06S
WILLMAR        FAIR      52  39  62 W17G24    30.02S
$$
MNZ033>034-036-042>043-049>051-058-059-261500-
   Central Minnesota

CITY           SKY/WX    TMP DP  RH WIND       PRES   REMARKS
ST CLOUD       SUNNY     51  40  65 W17G23    29.93S
SAUK CENTRE    FAIR      50  38  65 W15G25    29.96S
PAYNESVILLE    SUNNY     50  38  64 W15G22    29.98S
AITKIN         SUNNY     54  37  54 W9G17     29.82S
PINE RIVER     MOSUNNY   46  39  76 W8G18     29.89S
BRAINERD       SUNNY     50  39  66 W13G29    29.88S
STAPLES        SUNNY     48  37  66 W15G22    29.91S
LITTLE FALLS   SUNNY     50  36  57 W14G21    29.91S
LITCHFIELD     SUNNY     52  41  66 W14G21    29.99S
BUFFALO        SUNNY     51  40  63 W12G18    29.96F
MAPLE LAKE     SUNNY     53  41  64 W9G20     29.96F
HUTCHINSON     SUNNY     52  40  64 W14G21    30.01S
$$
MNZ037-044-045-052-053-261500-
   East Central Minnesota

CITY           SKY/WX    TMP DP  RH WIND       PRES   REMARKS
PRINCETON      SUNNY     54  41  62 W14G22    29.91F
MORA           SUNNY     50  39  66 W12G22    29.88F
CAMBRIDGE      SUNNY     54  39  58 W9G21     29.88S
MOOSE LAKE     CLOUDY    50  41  71 W13G23    29.79S
HINCKLEY       FAIR      52  43  71 W18G26    29.84S
CLOQUET        PTSUNNY   50  41  71 W20G30    29.74F
MCGREGOR       MOSUNNY   50  41  71 W14G22    29.82R
$$
MNZ071>073-080-081-089-090-097-098-261500-
   Southwest Minnesota

CITY           SKY/WX    TMP DP  RH WIND       PRES   REMARKS
MONTEVIDEO     SUNNY     54  37  54 NW10G22   30.06S
GRANITE FALLS  SUNNY     53  39  59 W14       30.07R
CANBY          SUNNY     53  38  57 NW15G23   30.10R
MARSHALL       SUNNY     54  37  52 W16       30.08S
REDWOOD FALLS  SUNNY     53  36  52 W16       30.04S
OLIVIA         SUNNY     52  37  58 W15G21    30.02S
PIPESTONE      SUNNY     48  37  66 W10       30.13S
WINDOM         SUNNY     54  36  50 W14       30.08F
WORTHINGTON    SUNNY     49  37  63 W14       30.13S
JACKSON        SUNNY     52  34  50 W13G20    30.10S
TRACY          SUNNY     53  38  55 W7G17     30.09S
$$
MNZ065>067-074>077-082>085-091>093-261500-
   South Central Minnesota

CITY           SKY/WX    TMP DP  RH WIND       PRES   REMARKS
MANKATO        SUNNY     52  38  58 W15       30.03S
ST JAMES       SUNNY     54  37  54 W13G18    30.07S
FAIRMONT       SUNNY     53  37  54 W16       30.08S
GLENCOE        SUNNY     52  43  70 W10G18    29.99S
FARIBAULT      SUNNY     54  39  58 W16G22    30.00S
OWATONNA       SUNNY     54  39  58 W12G21    30.01S
WASECA         SUNNY     52  37  58 W16       30.04S
ALBERT LEA     SUNNY     54  39  58 W10G23    30.04S
$$
MNZ078>079-086>088-094>096-261500-
   Southeast Minnesota

CITY           SKY/WX    TMP DP  RH WIND       PRES   REMARKS
ROCHESTER      SUNNY     53  40  61 W15G24    29.99S
RED WING       SUNNY     55  39  54 W14G22    29.93F
STANTON        SUNNY     54  40  59 W12G21    29.96F
DODGE CENTER   MOSUNNY   52  39  62 W15G23    29.99F
WINONA         MOSUNNY   55  41  58 W10G23    29.96S
AUSTIN         SUNNY     54  37  54 W13G22    30.02S
PRESTON        SUNNY     52  39  62 W18       30.00F
$$
ABBREVIATIONS USED IN REMARKS
   TC - TEMPERATURES IN CELSIUS
  WCI - WIND CHILL INDEX
   HX - HEAT INDEX
  VSB - VISIBILITY
$$



USA.gov is the U.S. government's official web portal to all federal, state and local government web resources and services.